Torna al catalogo

STARLINK-3502

AttivoComunicazioniVLEO
NORAD 51746·PAYLOAD·🇺🇸 United States

Lanciato Feb 21, 2022 da Cape Canaveral Space Force Station

Loading…

Prossimi Passaggi (prossime 24 ore)

TLE

AggiornatoSource: CelesTrak SupGP

Epoca: Sep 14, 2026, 20:07 UTC

1 51746C 22016AJ  26257.83868056 -.00016555  00000+0 -53237-3 0  2573
2 51746  53.1582 168.1286 0001348  91.2460 325.8337 15.31709736    13

Traccia STARLINK-3502 in tempo reale con AllMySat

Download on the App Store